FW2795 Weather Reports


Display with metric or nautical units.
time (UTC)temp
F
wind
direction
speed
MPH
gust
MPH
rain 1hr
in
rain 24hr
in
rain mn
in
humidity
%
barometer
mb
20260905064908 54 272 1.0 2.0 0.00 0.02 0.00 98 1023.8
20260905064408 53 272 1.0 2.0 0.00 0.02 0.00 98 1023.8
20260905063907 53 286 1.0 2.0 0.00 0.02 0.00 98 1023.7
20260905063407 53 301 2.0 2.0 0.00 0.02 0.00 98 1023.8
20260905062906 52 285 1.0 2.0 0.00 0.02 0.00 98 1023.5
20260905062356 52 270 2.0 2.0 0.00 0.02 0.00 97 1023.5
20260905061855 51 270 0.0 0.0 0.00 0.02 0.00 97 1023.5
20260905061355 51 270 0.0 0.0 0.00 0.02 0.00 97 1023.5
20260905060854 51 270 0.0 0.0 0.00 0.02 0.00 97 1023.4
20260905060354 51 270 0.0 1.0 0.00 0.02 0.00 97 1023.3
20260905055909 51 270 0.0 1.0 0.00 0.02 0.00 96 1023.1
20260905055408 51 270 2.0 2.0 0.00 0.02 0.00 96 1023.1
20260905054858 51 180 0.0 1.0 0.00 0.02 0.00 96 1023.0
20260905054358 51 315 0.0 0.0 0.00 0.02 0.00 96 1023.1
20260905053857 51 315 0.0 1.0 0.00 0.02 0.00 96 1023.0
20260905053412 50 315 0.0 0.0 0.00 0.02 0.00 95 1022.9
20260905052916 50 315 0.0 0.0 0.00 0.02 0.00 95 1022.9
20260905052406 51 315 0.0 0.0 0.00 0.02 0.00 95 1022.6
20260905051905 51 315 1.0 1.0 0.00 0.02 0.00 95 1022.8
20260905051404 51 180 0.0 0.0 0.00 0.02 0.00 94 1022.5
20260905050904 51 180 0.0 1.0 0.00 0.02 0.00 94 1022.5
20260905050409 50 180 0.0 0.0 0.00 0.02 0.00 94 1022.5
20260905045908 50 180 0.0 0.0 0.00 0.02 0.00 93 1022.4
20260905045407 50 180 0.0 0.0 0.00 0.02 0.00 93 1022.6
20260905044907 51 180 0.0 0.0 0.00 0.02 0.00 93 1022.4
20260905044407 51 180 0.0 0.0 0.00 0.02 0.00 93 1022.5
20260905043906 51 180 0.0 0.0 0.00 0.02 0.00 93 1022.3
20260905043406 51 180 0.0 0.0 0.00 0.02 0.00 93 1022.2
20260905042905 51 180 0.0 0.0 0.00 0.02 0.00 93 1022.3
20260905042405 51 225 0.0 0.0 0.00 0.02 0.00 93 1022.2
20260905041905 52 225 0.0 0.0 0.00 0.02 0.00 93 1022.3
20260905041418 52 225 0.0 0.0 0.00 0.02 0.00 93 1022.0
20260905040908 52 235 0.0 0.0 0.00 0.02 0.00 93 1022.1
20260905040407 53 235 0.0 1.0 0.00 0.02 0.00 93 1021.8
20260905035907 53 221 2.0 2.0 0.00 0.02 0.00 93 1022.0
20260905035357 53 248 0.0 1.0 0.00 0.02 0.00 93 1021.9
20260905034856 53 248 0.0 0.0 0.00 0.02 0.00 93 1022.1
20260905034355 53 278 1.0 2.0 0.00 0.02 0.00 93 1022.0
20260905033855 53 256 0.0 1.0 0.00 0.02 0.00 93 1021.9
20260905033355 53 251 2.0 3.0 0.00 0.02 0.00 93 1021.8
20260905032854 53 282 2.0 2.0 0.00 0.02 0.00 93 1021.8
20260905032409 53 299 0.0 1.0 0.00 0.02 0.00 93 1021.7
20260905031908 53 294 2.0 4.0 0.00 0.02 0.00 93 1021.7
20260905031408 53 227 1.0 2.0 0.00 0.02 0.00 93 1021.8
20260905030907 53 213 2.0 2.0 0.00 0.02 0.00 93 1021.6
20260905030407 53 233 1.0 2.0 0.00 0.02 0.00 93 1021.6
20260905025907 54 252 2.0 2.0 0.00 0.02 0.00 93 1021.6
20260905025406 54 259 1.0 2.0 0.00 0.02 0.00 92 1021.6
20260905024906 54 263 2.0 2.0 0.00 0.02 0.00 92 1021.5
20260905024406 54 257 2.0 3.0 0.00 0.02 0.00 92 1021.4
20260905023906 54 255 3.0 4.0 0.00 0.02 0.00 92 1021.4
20260905023405 54 237 2.0 3.0 0.00 0.02 0.00 92 1021.1
20260905022905 54 245 1.0 2.0 0.00 0.02 0.00 92 1021.1
20260905022404 54 235 1.0 2.0 0.00 0.02 0.00 92 1021.5
20260905021904 54 244 2.0 2.0 0.00 0.02 0.00 91 1021.2
20260905021404 54 258 1.0 2.0 0.00 0.02 0.00 91 1021.2
20260905020903 54 238 0.0 1.0 0.00 0.02 0.00 91 1021.2
20260905020402 54 237 1.0 2.0 0.00 0.02 0.00 91 1021.2
20260905015902 54 238 1.0 2.0 0.00 0.02 0.00 91 1021.1
20260905015402 54 244 2.0 3.0 0.00 0.02 0.00 90 1021.0
20260905014901 54 229 2.0 2.0 0.00 0.02 0.00 87 1021.0
20260905014401 54 244 1.0 2.0 0.00 0.02 0.00 87 1021.1
20260905013901 54 240 1.0 2.0 0.00 0.02 0.00 86 1021.2
20260905013401 54 247 2.0 3.0 0.00 0.02 0.00 86 1021.1
20260905012900 55 286 1.0 2.0 0.00 0.02 0.00 86 1021.2
20260905012400 55 276 1.0 2.0 0.00 0.02 0.00 86 1021.0
20260905011900 55 286 2.0 2.0 0.00 0.02 0.00 86 1021.0
20260905011359 55 274 2.0 2.0 0.00 0.02 0.00 86 1021.0
20260905010859 55 303 1.0 2.0 0.00 0.02 0.00 86 1020.9
20260905010359 55 306 2.0 3.0 0.00 0.02 0.00 86 1020.7
20260905005858 55 289 1.0 2.0 0.00 0.02 0.00 86 1020.9
20260905005358 55 284 4.0 5.0 0.00 0.02 0.00 86 1020.9
20260905004912 54 302 2.0 3.0 0.00 0.02 0.00 85 1020.9
20260905004402 54 286 2.0 3.0 0.00 0.02 0.00 85 1020.8
20260905003902 54 246 1.0 2.0 0.00 0.02 0.00 84 1020.8
20260905003401 54 252 1.0 2.0 0.00 0.02 0.00 84 1020.8
20260905002901 55 264 1.0 2.0 0.00 0.02 0.00 84 1020.8
20260905002415 55 269 0.0 1.0 0.00 0.02 0.00 84 1021.0
20260905001905 55 270 0.0 1.0 0.00 0.02 0.00 83 1020.7
20260905001404 55 267 1.0 2.0 0.00 0.02 0.00 83 1020.8
20260905000909 55 274 2.0 2.0 0.00 0.02 0.00 83 1020.7
20260905000359 55 269 2.0 3.0 0.00 0.02 0.00 83 1020.6
20260904235858 55 246 2.0 2.0 0.00 0.02 0.00 82 1020.7
20260904235413 55 254 2.0 2.0 0.00 0.02 0.00 82 1020.6
20260904234903 56 242 1.0 2.0 0.00 0.02 0.00 82 1020.4
20260904234402 56 244 2.0 2.0 0.00 0.02 0.00 82 1020.4
20260904233902 56 237 2.0 3.0 0.00 0.02 0.00 82 1020.2
20260904233401 56 267 2.0 3.0 0.00 0.02 0.00 82 1020.5
20260904232901 56 242 2.0 3.0 0.00 0.02 0.00 83 1020.3
20260904232401 56 247 1.0 2.0 0.00 0.02 0.00 83 1020.4
20260904231901 56 253 2.0 2.0 0.00 0.02 0.00 83 1020.5
20260904231400 56 257 2.0 2.0 0.00 0.02 0.00 83 1020.3
20260904230900 56 240 2.0 3.0 0.00 0.02 0.00 82 1020.3
20260904230355 56 233 2.0 2.0 0.00 0.02 0.00 82 1020.4
20260904225909 56 236 2.0 3.0 0.00 0.02 0.00 82 1020.5
20260904225359 56 244 2.0 2.0 0.00 0.02 0.00 82 1020.4
20260904224859 56 235 4.0 4.0 0.00 0.02 0.00 81 1020.4
20260904224358 56 258 2.0 2.0 0.00 0.02 0.00 81 1020.3
20260904223857 56 293 1.0 2.0 0.00 0.02 0.00 80 1020.4
20260904223357 56 290 1.0 2.0 0.00 0.02 0.00 80 1020.2
20260904222857 56 285 1.0 2.0 0.00 0.02 0.00 80 1020.2
20260904222411 56 264 0.0 1.0 0.00 0.02 0.00 80 1020.0
20260904221908 57 265 1.0 2.0 0.00 0.02 0.00 80 1019.9
20260904221408 57 257 1.0 2.0 0.00 0.02 0.00 80 1020.0
20260904220858 57 252 2.0 2.0 0.00 0.02 0.00 80 1020.1
20260904220357 57 232 2.0 3.0 0.00 0.02 0.00 80 1020.0
20260904215912 57 238 2.0 3.0 0.00 0.02 0.00 80 1020.2
20260904215402 57 241 2.0 2.0 0.00 0.02 0.00 79 1020.0
20260904214901 58 229 2.0 4.0 0.00 0.02 0.00 78 1020.0
20260904214416 58 231 2.0 2.0 0.00 0.02 0.00 77 1019.9
20260904213906 58 244 1.0 2.0 0.00 0.02 0.00 76 1019.8
20260904213405 58 245 1.0 2.0 0.00 0.02 0.00 76 1019.9
20260904212905 58 239 2.0 2.0 0.00 0.02 0.00 75 1019.8
20260904212405 59 243 2.0 3.0 0.00 0.02 0.00 75 1019.9
20260904211904 59 253 1.0 2.0 0.00 0.02 0.00 75 1020.0
20260904211404 59 260 2.0 3.0 0.00 0.02 0.00 74 1019.8
20260904210903 59 246 2.0 2.0 0.00 0.02 0.00 74 1019.9
20260904210402 59 258 2.0 2.0 0.00 0.02 0.00 74 1019.7
20260904205902 59 258 2.0 4.0 0.00 0.02 0.00 74 1019.7
20260904205402 59 274 2.0 2.0 0.00 0.02 0.00 74 1019.7
20260904204902 59 293 2.0 2.0 0.00 0.02 0.00 74 1019.8
20260904204402 59 303 2.0 3.0 0.00 0.02 0.00 74 1019.7
20260904203901 59 287 1.0 2.0 0.00 0.02 0.00 74 1019.6
20260904203401 59 290 2.0 2.0 0.00 0.02 0.00 74 1019.7
20260904202900 59 260 1.0 2.0 0.00 0.02 0.00 74 1019.6
20260904202400 59 265 1.0 1.0 0.00 0.02 0.00 73 1019.5
20260904201900 59 282 1.0 2.0 0.00 0.02 0.00 73 1019.7
20260904201414 60 293 1.0 1.0 0.00 0.02 0.00 72 1019.8
20260904200904 60 311 2.0 3.0 0.00 0.02 0.00 72 1019.7
20260904200403 60 267 1.0 2.0 0.00 0.02 0.00 72 1019.8
20260904195803 61 243 2.0 2.0 0.00 0.02 0.00 71 1019.5
20260904195305 61 226 1.0 2.0 0.00 0.02 0.00 71 1019.5
20260904194801 61 241 2.0 3.0 0.00 0.02 0.00 71 1019.4
20260904194300 61 262 2.0 3.0 0.00 0.02 0.00 71 1019.3
20260904193800 61 221 2.0 4.0 0.00 0.02 0.00 71 1019.3
20260904193315 62 278 2.0 4.0 0.00 0.02 0.00 70 1019.2
20260904192804 62 307 2.0 3.0 0.00 0.02 0.00 70 1019.0
20260904192306 62 287 2.0 3.0 0.00 0.02 0.00 70 1019.0
20260904191803 62 281 2.0 3.0 0.00 0.02 0.00 70 1019.0
20260904191303 62 290 2.0 4.0 0.00 0.02 0.00 70 1019.0
20260904190802 63 308 2.0 4.0 0.00 0.02 0.00 69 1018.9
20260904190317 63 295 2.0 3.0 0.00 0.02 0.00 69 1018.6
20260904185822 63 295 2.0 3.0 0.00 0.02 0.00 68 1018.5
20260904185316 63 294 2.0 4.0 0.00 0.02 0.00 67 1018.3
20260904184806 64 262 3.0 5.0 0.00 0.02 0.00 63 1018.4
20260904184306 64 235 2.0 4.0 0.00 0.02 0.00 63 1018.1
20260904183810 64 232 4.0 5.0 0.00 0.02 0.00 62 1018.2
20260904183255 64 231 4.0 6.0 0.00 0.02 0.00 62 1017.9
20260904182810 65 272 3.0 4.0 0.00 0.02 0.00 62 1017.9
20260904182208 65 219 4.0 8.0 0.00 0.02 0.00 61 1017.8
20260904181708 65 272 4.0 6.0 0.00 0.02 0.00 61 1017.8
20260904181207 65 312 4.0 6.0 0.00 0.02 0.00 61 1017.6
20260904180657 65 288 2.0 3.0 0.00 0.02 0.00 61 1017.6
20260904180157 65 301 3.0 6.0 0.00 0.02 0.00 62 1017.7
20260904175657 65 289 3.0 4.0 0.00 0.02 0.00 61 1017.7
20260904175156 65 308 4.0 6.0 0.00 0.02 0.00 61 1017.8
20260904174656 65 315 4.0 5.0 0.00 0.02 0.00 61 1017.7
20260904174156 65 320 6.0 8.0 0.00 0.02 0.00 61 1017.5
20260904173710 65 287 4.0 5.0 0.00 0.02 0.00 60 1017.6
20260904173209 65 286 3.0 4.0 0.00 0.02 0.00 60 1017.4
20260904172709 65 303 4.0 6.0 0.00 0.02 0.00 59 1017.5
20260904172209 65 290 2.0 4.0 0.00 0.02 0.00 58 1017.5
20260904171709 65 283 3.0 4.0 0.00 0.02 0.00 57 1017.4
20260904171208 66 262 3.0 5.0 0.00 0.02 0.00 56 1017.5
20260904170708 66 249 5.0 7.0 0.00 0.02 0.00 55 1017.3
20260904170208 66 264 5.0 7.0 0.00 0.02 0.00 55 1017.1
20260904165707 66 252 3.0 4.0 0.00 0.02 0.00 55 1017.2
20260904165212 66 260 1.0 2.0 0.00 0.02 0.00 54 1017.2
20260904164702 66 260 6.0 11.0 0.00 0.02 0.00 54 1017.1
20260904164216 66 258 3.0 4.0 0.00 0.02 0.00 54 1017.1
20260904163706 67 240 3.0 7.0 0.00 0.02 0.00 54 1017.0
20260904163219 67 199 8.0 11.0 0.00 0.02 0.00 54 1016.9
20260904162608 67 80 2.0 3.0 0.00 0.02 0.00 54 1017.0
20260904162108 67 74 4.0 8.0 0.00 0.02 0.00 53 1016.8
20260904161558 67 98 7.0 11.0 0.00 0.02 0.00 54 1016.9
20260904161055 67 196 3.0 5.0 0.00 0.02 0.00 55 1016.6
20260904160609 67 226 3.0 8.0 0.00 0.02 0.00 55 1016.7
20260904160109 67 254 4.0 5.0 0.00 0.02 0.00 55 1016.6
20260904155609 67 267 5.0 9.0 0.00 0.02 0.00 54 1016.7
20260904155058 68 312 4.0 4.0 0.00 0.02 0.00 55 1016.9
20260904154557 68 277 2.0 2.0 0.00 0.02 0.00 56 1016.8
20260904154057 68 273 2.0 3.0 0.00 0.02 0.00 55 1016.9
20260904153555 68 267 3.0 4.0 0.00 0.02 0.00 55 1016.8
20260904153009 68 266 4.0 4.0 0.00 0.02 0.00 54 1016.8
20260904152509 68 277 4.0 8.0 0.00 0.02 0.00 53 1016.7
20260904152009 68 293 5.0 8.0 0.00 0.02 0.00 52 1016.7
20260904151509 69 287 4.0 6.0 0.00 0.02 0.00 51 1016.6
20260904151008 69 274 4.0 4.0 0.00 0.02 0.00 51 1016.7
20260904150458 69 258 6.0 10.0 0.00 0.02 0.00 51 1016.7
20260904150012 69 250 6.0 11.0 0.00 0.02 0.00 50 1016.8
20260904145502 69 284 4.0 7.0 0.00 0.02 0.00 50 1016.6
20260904145002 69 277 4.0 8.0 0.00 0.02 0.00 49 1016.7
20260904144502 69 248 3.0 5.0 0.00 0.02 0.00 50 1016.6
20260904144001 69 241 5.0 8.0 0.00 0.02 0.00 50 1016.5
20260904143501 69 231 5.0 9.0 0.00 0.02 0.00 49 1016.3
20260904143013 69 216 3.0 5.0 0.00 0.02 0.00 49 1016.5
20260904142403 69 212 8.0 11.0 0.00 0.02 0.00 50 1016.3
20260904141902 69 262 5.0 8.0 0.00 0.02 0.00 52 1016.3
20260904141402 69 283 3.0 4.0 0.00 0.02 0.00 53 1016.3
20260904140901 68 316 3.0 5.0 0.00 0.02 0.00 53 1016.3
20260904140401 68 300 4.0 5.0 0.00 0.02 0.00 53 1016.3
20260904135901 68 316 3.0 4.0 0.00 0.02 0.00 53 1016.2
20260904135400 68 282 3.0 5.0 0.00 0.02 0.00 53 1016.3
20260904134859 68 261 8.0 15.0 0.00 0.02 0.00 53 1016.4
20260904134359 68 301 4.0 8.0 0.00 0.02 0.00 53 1016.3
20260904133858 69 311 5.0 11.0 0.00 0.02 0.00 53 1016.1
20260904133358 68 303 6.0 8.0 0.00 0.02 0.00 53 1016.2
20260904132857 68 283 3.0 4.0 0.00 0.02 0.00 53 1016.0
20260904132257 68 267 3.0 5.0 0.00 0.02 0.00 54 1016.1
20260904131757 68 259 4.0 8.0 0.00 0.02 0.00 53 1015.9
20260904131156 68 251 4.0 5.0 0.00 0.02 0.00 53 1016.1
20260904130656 69 234 4.0 5.0 0.00 0.02 0.00 53 1016.0
20260904130211 69 230 7.0 11.0 0.00 0.02 0.00 52 1016.2
20260904125230 69 240 4.0 8.0 0.00 0.02 0.00 55 1016.0
20260904124315 69 189 5.0 8.0 0.00 0.02 0.00 60 1015.7
20260904123505 69 147 6.0 8.0 0.00 0.02 0.00 60 1015.6
20260904122704 69 269 2.0 4.0 0.00 0.02 0.00 61 1015.4
20260904121919 68 293 4.0 8.0 0.00 0.02 0.00 60 1015.3
20260904121109 68 327 6.0 8.0 0.00 0.02 0.00 60 1015.4
20260904120308 69 295 5.0 8.0 0.00 0.02 0.00 61 1015.4
20260904115508 68 285 5.0 7.0 0.00 0.02 0.00 61 1015.3
20260904114707 69 292 4.0 5.0 0.00 0.02 0.00 61 1015.1
20260904113907 69 274 6.0 8.0 0.00 0.02 0.00 61 1015.2
20260904113107 69 277 4.0 5.0 0.00 0.02 0.00 61 1015.0
20260904112306 69 253 6.0 9.0 0.00 0.02 0.00 61 1015.0
20260904111506 69 238 5.0 8.0 0.00 0.02 0.00 61 1014.6
20260904110705 69 245 5.0 10.0 0.00 0.02 0.00 61 1015.1
20260904105904 69 225 5.0 8.0 0.00 0.02 0.00 63 1014.5
20260904105104 69 216 3.0 4.0 0.00 0.02 0.00 64 1014.6
20260904104304 69 214 3.0 5.0 0.00 0.02 0.00 64 1014.4
20260904103503 69 214 4.0 7.0 0.00 0.02 0.00 64 1014.6
20260904102703 69 206 6.0 8.0 0.00 0.02 0.00 65 1014.5
20260904101918 69 336 2.0 4.0 0.00 0.02 0.00 69 1014.6
20260904101107 69 301 4.0 7.0 0.00 0.02 0.00 68 1014.5
20260904100307 69 255 3.0 4.0 0.00 0.02 0.00 68 1014.4
20260904095511 69 242 3.0 5.0 0.00 0.02 0.00 70 1014.2
20260904095001 69 263 3.0 4.0 0.00 0.02 0.00 70 1014.1
20260904094501 69 276 5.0 9.0 0.00 0.02 0.00 70 1013.8
20260904094000 68 305 4.0 4.0 0.00 0.02 0.00 70 1013.9
20260904093515 69 316 6.0 8.0 0.00 0.02 0.00 69 1013.8
20260904093005 69 297 6.0 11.0 0.00 0.02 0.00 70 1013.8
20260904092504 68 283 7.0 11.0 0.00 0.02 0.00 71 1013.7
20260904092004 68 271 4.0 8.0 0.00 0.02 0.00 71 1013.5
20260904091503 68 286 6.0 12.0 0.00 0.02 0.00 71 1013.5
20260904091002 68 273 7.0 11.0 0.00 0.02 0.00 72 1013.4
20260904090502 68 275 3.0 5.0 0.00 0.02 0.00 73 1013.5
20260904090001 67 274 6.0 8.0 0.00 0.02 0.00 73 1013.5
20260904085501 67 299 8.0 11.0 0.00 0.02 0.00 75 1013.5
20260904085000 67 286 2.0 4.0 0.00 0.02 0.00 79 1013.4
20260904084515 67 277 3.0 5.0 0.00 0.02 0.00 80 1013.5
20260904084019 66 272 5.0 9.0 0.00 0.02 0.00 81 1013.2
20260904083509 66 285 2.0 3.0 0.00 0.02 0.00 83 1013.2
20260904082958 66 290 2.0 4.0 0.00 0.02 0.00 83 1012.9
20260904082455 66 281 3.0 4.0 0.00 0.02 0.00 83 1013.1
20260904081955 66 257 2.0 3.0 0.00 0.02 0.00 83 1013.1
20260904081510 65 278 4.0 8.0 0.00 0.02 0.00 83 1013.0
20260904080955 65 313 4.0 5.0 0.00 0.02 0.00 84 1013.0
20260904080509 65 307 4.0 8.0 0.01 0.02 0.00 84 1013.1
20260904080009 65 329 2.0 4.0 0.01 0.02 0.00 83 1013.3
20260904075509 66 331 3.0 8.0 0.02 0.02 0.00 83 1013.1
20260904075009 66 321 7.0 11.0 0.02 0.02 0.00 83 1012.9
20260904074509 66 291 5.0 8.0 0.02 0.02 0.00 85 1012.9
20260904074008 66 269 3.0 4.0 0.02 0.02 0.00 87 1012.8
20260904073508 66 276 4.0 7.0 0.02 0.02 0.00 86 1012.8
20260904073008 66 298 3.0 5.0 0.02 0.02 0.00 86 1012.8
20260904072508 66 292 5.0 8.0 0.02 0.02 0.00 86 1012.8
20260904072008 66 276 5.0 8.0 0.02 0.02 0.00 87 1012.5
20260904071507 66 278 6.0 8.0 0.02 0.02 0.00 88 1012.7
20260904071007 67 299 7.0 11.0 0.02 0.02 0.00 91 1012.1
20260904070512 67 279 5.0 8.0 0.01 0.01 0.00 91 1011.8
20260904070001 68 248 4.0 5.0 0.01 0.01 0.00 89 1011.7
20260904065501 68 240 4.0 5.0 0.00 0.00 0.00 88 1011.4